Regional Weather Roundup
Issued by NWS

Home | Current Version | Previous Version | Graphics & Text | Print | Product List | Glossary On
Versions: 1 2 3 4 5 6 7 8 9 10 11 12 13 14 15 16 17 18 19 20 21 22 23 24 25 26 27 28 29 30 31 32 33 34 35 36 37 38 39 40 41 42 43 44 45 46 47 48 49 50
000
ASUS44 KMEG 281710
RWRTN
TENNESSEE HOURLY STATE WEATHER ROUNDUP
NATIONAL WEATHER SERVICE MEMPHIS TN
1100 AM CST FRI NOV 28 2014

TNZ002-004-019-021-049-052-054-088>092-281800-
WEST TENNESSEE

CITY           SKY/WX    TMP DP  RH WIND       PRES   REMARKS
MEMPHIS INTL   SUNNY     48  26  42 S15       30.36F
NWS MEMPHIS      N/A     47 N/A N/A MISG        N/A
JACKSON        SUNNY     43  27  53 S10G17    30.36F
DYERSBURG      SUNNY     43  21  42 S12G17    30.35F
UNION CITY     SUNNY     39  28  65 S10       30.33F WCI  32
PARIS          SUNNY     37  27  65 S9        30.34F WCI  31
HUNTINGDON     SUNNY     39  24  55 S9        30.35F WCI  33
LEXINGTON      SUNNY     39  25  56 S8        30.36F WCI  34
SAVANNAH       SUNNY     41  25  52 S7        30.39F
$$

TNZ008-025-027-028-033-062-065-066-281800-
NORTH MIDDLE TENNESSEE

CITY           SKY/WX    TMP DP  RH WIND       PRES   REMARKS
NASHVILLE      SUNNY     38  19  46 SE8       30.40F WCI  32
CLARKSVILLE    SUNNY     38  25  59 S7        30.37F WCI  33
COOKEVILLE     SUNNY     37  19  48 S3        30.36F
CROSSVILLE     SUNNY     35  13  40 VRB5      30.33F WCI  31
$$

TNZ061-075-076-078-094-096-097-281800-
SOUTH MIDDLE TENNESSEE

CITY           SKY/WX    TMP DP  RH WIND       PRES   REMARKS
FAYETTEVILLE   SUNNY     37  18  44 MISG      30.38F
TULLAHOMA      SUNNY     37  14  38 SE3       30.37F
WINCHESTER     SUNNY     39  18  41 CALM      30.38F
MCMINNVILLE    SUNNY     37  19  48 CALM      30.36F
COLUMBIA       SUNNY     41  27  56 SE5       30.36F
SHELBYVILLE    SUNNY     39  23  52 SE3       30.39F
$$

TNZ017-018-042-046-047-281800-
NORTHEAST TENNESSEE

CITY           SKY/WX    TMP DP  RH WIND       PRES   REMARKS
TRI CITIES     MOSUNNY   33  21  61 VRB5      30.35F WCI  29
ELIZABETHTON   CLOUDY    28  19  69 VRB6      30.35F WCI  22
$$

TNZ012-013-036-069-073-074-281800-
CENTRAL EAST TENNESSEE

CITY           SKY/WX    TMP DP  RH WIND       PRES   REMARKS
KNOXVILLE      MOSUNNY   35  22  58 S3        30.39F
OAK RIDGE      SUNNY     36  19  50 VRB5      30.41F WCI  32
GATLINBURG     SUNNY     34  19  55 S3        30.38F
MORRISTOWN     SUNNY     36  21  55 NW8       30.37F WCI  29
$$

TNZ083-085-099-281800-
SOUTHEAST TENNESSEE

CITY           SKY/WX    TMP DP  RH WIND       PRES   REMARKS
CHATTANOOGA    SUNNY     39  19  44 CALM      30.42F
$$

SKY/WX REPORTED AS FAIR MEANS FEW OR NO CLOUDS BELOW
12 THOUSAND FEET.




USA.gov is the U.S. government's official web portal to all federal, state and local government web resources and services.